Location: Goudex
(43.3760°N, 0.9543°E)
Time: 00:42:44
(UTC+00:00)

ALOS - Pass Details

Date: 20 November 2019
Orbit: 683 x 685 km, 97.8° (Epoch: 14 December)

Event Time Altitude Azimuth Distance (km) Brightness Sun altitude
Rises 05:13:41 0° 15° (NNE) 3,058 5.7 -18.3°
Reaches altitude 10° 05:15:57 10° 17° (NNE) 2,138 4.9 -17.9°
Maximum altitude 05:20:37 70° 101° (E) 731 2.6 -17.1°
Drops below altitude 10° 05:25:15 10° 186° (S) 2,122 4.9 -16.2°
Sets 05:27:29 0° 188° (S) 3,033 5.7 -15.8°
